Location: Unspecified
(33.6682°S, 0.0000°E)
Time: 21:09:25
(UTC+00:00)

Tiros 1 despin weight - Pass Details

Date: 23 June 2019
Orbit: 594 x 642 km, 48.2° (Epoch: 21 August)

Event Time Altitude Azimuth Distance (km) Brightness Sun altitude
Rises 12:07:06 0° 259° (W) 2,939 ? 32.9°
Reaches altitude 10° 12:10:05 10° 240° (WSW) 2,041 ? 32.9°
Maximum altitude 12:13:19 18° 196° (SSW) 1,583 ? 32.8°
Drops below altitude 10° 12:16:36 10° 152° (SSE) 2,057 ? 32.8°
Sets 12:19:38 0° 133° (SE) 2,971 ? 32.8°
